Probability
16 20 26 24 18 14 13 11 10 10 9 6 4 3 2 3 3 3 3 3 3 3 3 3 1 0 0 0 0 0 0 0 0 0 0 0 0 0 0 0 0 0 0
19 21 26 26 20 16 14 11 10 10 11 9 6 4 4 4 4 3 3 3 3 3 3 4 3 1 1 0 0 0 0 0 1 1 0 0 0 0 0 0 0 0 0
19 20 24 28 24 18 16 13 11 11 12 10 8 7 7 7 6 4 3 3 3 3 4 4 4 3 2 1 1 1 1 1 1 2 1 0 0 0 0 0 0 0 0
18 17 21 27 27 20 17 14 12 11 11 9 8 8 8 8 7 5 4 3 3 3 3 4 4 3 2 1 2 3 2 1 1 1 1 0 0 0 0 0 0 0 0
16 16 20 25 26 21 17 14 12 10 9 8 8 8 7 6 5 4 4 4 4 3 3 3 3 3 2 2 3 4 3 1 0 0 0 0 0 0 0 0 0 0 0
15 17 21 25 25 22 19 15 12 9 8 7 7 8 7 5 3 3 4 5 5 4 3 3 4 3 2 1 2 4 2 1 0 0 0 0 1 2 1 1 0 0 0
15 16 21 24 24 23 21 17 13 10 9 8 7 7 8 6 3 2 3 4 5 5 4 4 5 4 3 2 1 1 1 0 0 0 0 1 2 3 2 1 0 0 1
15 16 19 22 23 24 23 20 16 13 11 9 7 7 8 7 4 2 3 4 5 5 6 6 6 6 4 3 1 0 0 0 0 0 0 1 2 3 3 2 0 0 1
14 15 17 19 20 22 23 21 18 15 12 10 8 7 7 8 5 3 4 6 6 5 5 6 6 6 6 5 3 1 0 0 0 0 0 0 1 1 2 1 0 0 1
11 12 13 14 16 19 19 18 17 15 11 8 7 7 6 8 7 4 4 6 7 6 5 5 5 6 7 6 4 1 0 0 0 0 0 0 0 0 1 1 0 0 0
8 9 8 8 11 14 14 14 15 14 10 7 6 5 5 5 5 3 2 4 6 6 5 4 4 6 6 5 2 0 0 0 0 0 0 0 0 0 0 0 0 0 0
7 7 6 6 8 10 11 13 14 14 11 8 5 4 4 3 2 1 1 3 5 4 4 4 4 5 4 3 1 0 0 0 0 0 0 0 0 0 0 0 0 0 0
5 6 6 6 7 8 9 10 11 12 10 8 5 3 2 1 0 0 1 3 4 3 3 3 3 3 2 1 0 0 0 0 0 0 0 0 0 1 0 0 0 0 0
3 5 6 7 8 8 8 8 8 8 7 6 4 2 1 1 0 1 2 3 3 3 3 4 3 3 1 0 0 0 0 0 0 0 0 0 0 0 0 0 0 0 0
1 3 6 8 8 7 7 7 6 5 5 4 3 2 2 1 1 1 2 3 2 2 3 4 3 2 1 0 0 0 0 0 0 0 0 0 0 0 0 0 0 0 0
1 2 4 7 8 8 7 6 5 4 4 3 3 3 3 2 1 1 2 2 2 2 3 4 3 1 0 0 0 0 0 0 0 0 0 0 0 0 0 0 0 0 0
1 1 2 4 7 7 6 5 5 4 3 2 3 3 3 3 2 1 1 2 2 3 3 3 2 1 0 0 0 0 0 0 0 0 0 0 0 0 0 0 0 0 0
0 0 0 2 4 5 4 4 4 3 2 1 1 2 2 3 3 2 1 1 2 3 3 3 1 0 0 0 0 0 0 0 0 0 0 0 0 0 0 0 0 0 0
0 0 0 0 2 3 3 3 3 2 1 0 0 1 2 3 3 3 2 1 1 2 3 2 1 0 0 0 0 0 0 0 0 0 0 0 0 0 0 0 0 0 0
0 0 0 0 1 2 3 3 3 2 1 0 1 2 3 3 3 4 4 3 2 3 3 2 1 0 0 0 0 0 0 0 0 0 0 0 0 0 0 0 0 0 0
0 0 0 0 1 2 3 3 3 2 1 0 1 2 2 2 3 4 5 5 5 5 3 1 0 0 0 0 0 0 0 0 0 0 0 0 0 0 0 0 0 0 0
0 0 0 0 1 2 2 2 1 1 0 0 1 2 1 1 2 3 4 4 5 5 2 0 0 0 0 0 0 0 0 0 0 0 0 0 0 0 0 0 0 0 0
0 0 0 0 0 1 1 1 0 0 0 0 1 1 0 0 1 3 3 4 4 3 2 1 0 0 0 0 0 0 0 0 0 0 0 0 0 0 0 0 0 0 0
0 0 0 0 0 0 0 0 0 0 0 0 0 0 0 0 1 2 4 4 3 2 1 1 1 0 0 0 0 0 0 0 0 0 0 0 0 0 0 0 0 0 0
1 2 1 1 0 0 0 0 0 0 0 0 0 0 0 0 0 1 3 4 3 2 1 0 0 0 0 0 0 0 0 0 0 0 0 0 0 0 0 0 0 0 0
3 3 2 2 1 0 0 0 0 0 0 0 0 1 1 1 0 1 2 3 3 3 2 1 0 0 0 0 0 0 0 0 0 0 0 0 0 0 0 0 0 0 0
Wind_Speed
5 5 7 7 8 9 9 9 9 8 9 9 9 9 9 9 9 10 10 10 11 11 11 11 11 11 11 12 12 12 12 12 12 11 11 12 12 12 12 11 11 8 12
6 7 8 8 8 9 9 9 9 8 9 9 9 9 9 9 9 9 10 10 10 11 11 10 10 11 10 11 11 11 11 11 10 10 10 10 11 12 12 11 11 8 11
7 8 7 8 9 9 8 8 8 9 8 8 8 8 8 9 9 9 9 9 10 10 10 10 10 10 10 11 10 10 9 8 8 7 7 5 7 11 11 11 11 11 10
6 7 6 7 8 9 8 8 8 8 8 8 8 8 8 9 8 9 9 9 9 9 10 10 10 10 10 10 9 9 8 6 5 4 4 5 5 10 10 10 10 10 9
5 6 7 8 8 8 8 8 7 7 8 7 7 8 8 8 8 8 8 8 9 9 9 9 9 10 9 9 9 8 6 5 4 3 4 5 5 8 9 9 8 9 9
5 6 7 8 7 8 8 7 7 7 7 7 7 7 8 8 8 8 8 8 8 8 8 8 9 9 9 8 8 7 6 4 3 2 4 4 4 7 8 7 7 7 7
4 5 6 7 7 7 8 7 7 6 6 7 6 7 8 8 8 8 8 8 8 8 8 8 8 8 8 8 7 6 4 3 2 3 4 4 5 8 7 7 6 7 6
4 4 5 5 6 6 7 7 6 6 6 6 6 6 7 8 8 8 8 7 7 7 8 8 8 8 8 7 6 5 4 3 2 3 4 4 6 7 6 6 6 6 6
4 4 3 3 4 5 5 6 6 6 6 5 5 6 6 7 7 8 7 7 7 7 7 8 7 7 7 7 6 4 3 3 2 2 4 4 6 6 6 5 5 5 5
4 4 3 2 2 3 4 5 6 6 6 5 5 5 5 5 6 6 6 6 7 7 7 7 7 7 6 5 4 3 2 3 1 2 3 3 6 5 5 4 4 4 4
3 3 2 1 2 2 3 5 5 5 5 5 4 5 4 3 3 3 5 6 6 6 7 6 6 6 5 4 3 2 0 1 1 2 2 4 4 4 3 3 3 3 3
3 2 2 1 2 2 3 3 3 3 3 3 3 3 2 2 2 3 5 5 5 5 6 6 5 4 3 2 1 1 0 1 1 2 2 5 4 3 3 2 2 2 3
2 3 2 1 1 2 2 2 1 2 2 2 3 2 2 2 2 3 2 3 3 4 3 3 3 1 1 1 1 1 1 1 1 1 2 4 3 2 2 1 1 1 2
2 2 2 1 1 1 2 2 2 1 2 2 2 2 2 2 2 2 2 2 2 2 2 2 1 1 1 1 1 1 0 1 1 1 2 3 2 1 1 0 1 1 2
2 2 2 2 1 1 1 1 2 1 1 2 2 2 2 2 2 2 2 2 2 2 2 1 1 1 1 1 0 1 1 1 1 1 2 2 2 1 1 1 2 2 3
2 3 1 1 1 1 1 1 2 2 1 2 2 2 2 2 2 2 2 2 2 2 2 1 1 1 1 1 0 0 0 0 1 1 2 2 1 2 2 2 3 3 3
2 2 1 1 1 0 0 1 1 1 2 2 2 3 3 2 2 2 2 2 2 1 2 1 1 0 0 0 0 1 0 0 0 1 1 2 2 2 2 3 4 4 4
2 2 1 1 0 0 0 0 1 1 1 1 2 3 3 3 3 2 2 2 2 2 1 1 1 1 0 0 0 1 1 0 1 1 1 1 1 1 2 3 4 5 5
1 2 2 1 0 0 0 1 1 1 1 1 1 2 3 3 3 2 2 2 2 2 2 1 1 1 1 0 1 1 1 1 1 1 1 1 1 1 1 2 3 4 5
1 1 2 1 0 0 0 1 1 1 0 1 1 1 2 3 3 3 2 3 3 2 2 2 1 1 1 0 1 1 2 2 1 1 1 1 1 1 1 1 2 3 5
1 1 2 1 0 0 0 0 1 0 0 0 1 2 2 2 3 3 2 3 3 3 3 2 2 1 1 1 0 1 2 2 2 1 1 1 1 1 2 2 1 1 2
1 2 1 1 0 1 0 0 1 1 1 1 0 1 2 2 2 2 3 3 3 3 3 3 3 2 1 1 1 0 1 2 2 2 1 1 2 1 2 2 1 1 1
2 2 2 2 1 0 1 0 0 1 0 0 1 1 1 2 3 3 2 2 3 3 3 3 3 3 2 1 1 1 1 2 1 1 2 2 1 2 2 1 2 2 2
3 3 3 2 2 1 1 1 1 1 2 2 1 1 1 2 2 3 3 2 3 3 3 3 3 2 2 2 1 2 2 1 1 2 2 2 2 2 2 2 2 2 2
4 4 3 3 3 1 0 0 1 1 2 1 1 1 1 1 2 3 3 3 3 3 3 3 2 2 2 2 2 1 2 2 2 2 3 2 2 2 2 2 2 2 2
4 4 3 3 3 2 1 1 0 1 1 1 1 1 1 1 1 2 3 3 3 3 4 3 3 3 3 2 2 1 1 2 2 2 3 3 3 3 3 2 2 2 2
Wind_Direction
98 114 117 112 110 110 108 105 105 113 115 114 112 109 106 102 99 98 97 96 99 101 101 99 99 96 93 91 89 87 86 83 82 83 81 82 82 78 74 70 69 70 71
114 118 117 112 112 112 110 107 106 105 112 112 111 110 107 105 103 101 99 97 99 103 103 100 99 98 96 94 93 91 89 88 88 86 80 79 80 77 73 68 73 75 72
108 115 116 110 114 112 108 107 108 106 109 111 112 110 109 107 106 104 101 99 97 102 101 100 97 97 97 97 96 95 93 92 91 89 88 86 81 80 76 71 75 74 70
108 118 117 106 115 113 109 107 110 111 107 112 112 114 113 110 107 104 101 101 98 100 101 101 98 98 97 99 99 98 97 92 84 76 86 85 82 83 79 73 74 73 70
106 113 117 111 118 118 114 112 111 117 114 111 115 115 114 112 108 105 102 102 100 103 101 100 101 102 100 100 102 102 100 90 66 67 75 79 78 84 79 74 73 74 73
102 108 120 118 121 124 121 119 116 121 121 116 117 117 118 117 113 106 102 102 101 105 104 102 103 105 103 102 102 103 98 73 56 69 80 82 83 89 86 80 75 73 72
100 108 127 127 125 125 122 124 123 123 125 124 117 124 123 121 115 109 104 101 99 105 107 105 103 105 105 103 102 98 92 56 69 69 77 83 87 91 88 81 76 75 69
83 102 130 135 130 134 130 125 123 124 122 125 121 119 125 122 119 114 107 104 100 105 107 106 104 102 104 102 100 95 73 44 64 84 79 84 92 91 87 82 78 75 67
76 88 115 139 141 141 134 126 123 117 112 117 120 111 118 120 123 122 113 109 104 105 109 105 104 103 102 102 101 92 55 11 7 69 87 86 92 92 84 77 74 70 66
72 80 91 121 129 144 142 129 126 120 118 118 120 112 110 121 125 124 118 112 107 109 109 110 110 106 104 105 108 96 32 355 23 60 75 90 95 95 86 74 68 64 59
65 72 87 100 118 137 149 141 133 132 130 128 128 126 119 131 129 129 120 113 111 116 114 115 116 115 110 115 125 127 1 45 52 68 74 97 106 101 90 75 62 54 45
40 45 65 100 135 137 139 135 144 145 144 145 143 150 148 144 138 130 128 121 116 119 120 119 121 120 109 122 142 165 161 80 71 84 87 108 112 108 98 82 63 42 24
44 21 37 57 146 141 129 133 138 144 150 156 149 149 149 136 127 122 127 127 125 121 120 118 118 126 120 119 126 146 117 91 86 91 105 115 117 120 108 87 59 13 356
13 8 34 55 83 124 126 136 134 141 151 149 149 152 134 124 118 124 133 136 135 127 116 120 139 129 118 132 142 153 116 97 86 92 114 117 123 152 177 69 320 319 325
4 350 20 65 63 91 126 147 141 134 149 144 138 141 113 116 132 134 143 141 137 129 128 137 145 139 144 153 183 171 165 160 122 104 108 114 128 191 227 247 276 294 302
0 348 350 68 47 55 117 145 149 150 152 152 144 143 127 119 137 143 134 142 139 139 143 155 157 149 161 140 230 261 236 187 127 123 135 146 156 198 224 246 266 281 290
355 348 345 126 94 52 99 161 148 150 155 157 152 149 146 139 139 152 138 137 139 136 140 146 119 94 112 92 309 296 286 274 228 181 156 164 181 198 236 255 266 278 286
1 352 347 355 104 110 107 155 157 152 155 156 154 148 150 150 140 147 153 147 146 133 128 132 121 125 138 44 318 299 297 260 241 243 210 178 169 183 230 260 279 280 284
12 359 358 342 332 136 147 143 145 126 126 135 142 142 152 157 150 141 155 150 146 139 136 134 114 141 135 19 315 293 292 273 252 245 225 190 186 187 201 243 272 280 279
29 1 345 342 266 213 164 112 97 83 104 136 140 144 160 162 159 147 157 156 153 145 149 149 151 120 135 158 296 298 277 260 251 254 243 233 208 207 220 244 252 272 278
25 5 342 3 274 150 113 137 132 160 199 160 162 163 169 167 165 155 163 166 161 161 164 156 147 144 158 144 16 304 288 258 244 250 239 243 233 227 227 228 231 249 276
18 347 343 335 270 192 210 184 174 164 227 194 146 165 163 151 157 163 168 178 172 164 164 162 154 164 189 174 164 289 302 302 287 260 254 245 248 254 248 243 232 249 269
18 346 346 329 302 232 219 162 147 124 33 300 191 176 173 180 173 167 171 184 177 172 178 179 174 177 186 222 194 180 196 241 299 270 242 238 248 258 259 257 256 257 253
15 6 1 341 334 277 210 183 193 210 206 212 193 190 202 195 174 176 175 187 188 180 183 191 185 195 179 201 237 239 224 197 225 292 292 268 262 257 255 262 255 255 257
21 17 5 356 359 26 50 204 197 252 248 210 165 177 199 201 180 171 178 179 192 190 193 196 196 203 202 205 212 236 250 257 229 237 277 289 291 269 256 252 245 244 246
22 17 4 357 7 37 47 33 230 229 262 243 184 191 196 202 198 189 183 187 197 195 199 202 198 207 212 218 227 226 223 228 233 226 254 274 278 275 272 258 249 248 246